When you browse on this site, cookies collect data to enhance your experience and personalize the content and advertising you see.
Visit our Privacy Policy to learn more. By continuing to use the site, you agree to this use of cookies and data.
  • In Hungary
  • List of Countries
  • For 7 days
  • Water Temperature
  • Satellite Maps
  • Weather Map
  • News
  • Weather Widgets
  • user-avatar
    Login

    Hourly Weather Barisal

    Today, 10 December, Monday

    Time Temperature Precipitation Wind Pressure Humidity
    00:00 +20°C° 0 mm 1 mps 759 mmHg 61%
    01:00 +20°C° 0 mm 1 mps 759 mmHg 61%
    02:00 +19°C° 0 mm 2 mps 759 mmHg 62%
    03:00 +19°C° 0 mm 2 mps 759 mmHg 62%
    04:00 +18°C° 0 mm 2 mps 759 mmHg 63%
    05:00 +18°C° 0 mm 2 mps 759 mmHg 63%
    06:00 +18°C° 0 mm 1 mps 760 mmHg 68%
    07:00 +19°C° 0 mm 2 mps 760 mmHg 63%
    08:00 +21°C° 0 mm 2 mps 760 mmHg 58%
    09:00 +24°C° 0 mm 2 mps 761 mmHg 53%
    10:00 +25°C° 0 mm 2 mps 761 mmHg 48%
    11:00 +27°C° 0 mm 3 mps 760 mmHg 43%
    12:00 +30°C° 0 mm 2 mps 760 mmHg 32%
    13:00 +30°C° 0 mm 2 mps 759 mmHg 32%
    14:00 +30°C° 0 mm 2 mps 759 mmHg 31%
    15:00 +30°C° 0 mm 2 mps 758 mmHg 30%
    16:00 +28°C° 0 mm 2 mps 758 mmHg 34%
    17:00 +26°C° 0 mm 2 mps 758 mmHg 38%
    18:00 +24°C° 0 mm 2 mps 758 mmHg 42%
    19:00 +24°C° 0 mm 2 mps 758 mmHg 43%
    20:00 +23°C° 0 mm 2 mps 759 mmHg 45%
    21:00 +21°C° 0 mm 2 mps 759 mmHg 46%
    22:00 +21°C° 0 mm 2 mps 759 mmHg 48%
    23:00 +20°C° 0 mm 2 mps 759 mmHg 49%

    Tomorrow, 11 December, Tuesday

    Time Temperature Precipitation Wind Pressure Humidity
    00:00 +20°C° 0 mm 2 mps 759 mmHg 51%
    01:00 +20°C° 0 mm 2 mps 759 mmHg 52%
    02:00 +19°C° 0 mm 2 mps 759 mmHg 54%
    03:00 +19°C° 0 mm 2 mps 759 mmHg 56%
    04:00 +19°C° 0 mm 2 mps 759 mmHg 57%
    05:00 +18°C° 0 mm 2 mps 759 mmHg 59%
    06:00 +18°C° 0 mm 2 mps 759 mmHg 60%
    07:00 +20°C° 0 mm 2 mps 759 mmHg 57%
    08:00 +23°C° 0 mm 2 mps 760 mmHg 53%
    09:00 +24°C° 0 mm 2 mps 760 mmHg 50%
    10:00 +26°C° 0 mm 2 mps 760 mmHg 44%
    11:00 +28°C° 0 mm 2 mps 760 mmHg 38%
    12:00 +29°C° 0 mm 2 mps 760 mmHg 32%
    13:00 +29°C° 0 mm 3 mps 759 mmHg 31%
    14:00 +30°C° 0 mm 3 mps 759 mmHg 30%
    15:00 +30°C° 0 mm 3 mps 758 mmHg 28%
    16:00 +28°C° 0 mm 2 mps 758 mmHg 32%
    17:00 +26°C° 0 mm 2 mps 758 mmHg 35%
    18:00 +24°C° 0 mm 2 mps 758 mmHg 38%
    19:00 +24°C° 0 mm 2 mps 759 mmHg 40%
    20:00 +23°C° 0 mm 2 mps 759 mmHg 41%
    21:00 +23°C° 0 mm 2 mps 760 mmHg 42%
    22:00 +21°C° 0 mm 2 mps 760 mmHg 44%
    23:00 +21°C° 0 mm 2 mps 760 mmHg 46%

    Day after tomorrow, 12 December, Wednesday

    Time Temperature Precipitation Wind Pressure Humidity
    00:00 +20°C° 0 mm 2 mps 760 mmHg 47%
    01:00 +20°C° 0 mm 2 mps 760 mmHg 49%
    02:00 +20°C° 0 mm 2 mps 760 mmHg 52%
    03:00 +19°C° 0 mm 2 mps 759 mmHg 54%
    04:00 +19°C° 0 mm 2 mps 760 mmHg 56%
    05:00 +19°C° 0 mm 2 mps 760 mmHg 59%
    06:00 +18°C° 0 mm 2 mps 760 mmHg 61%
    07:00 +20°C° 0 mm 3 mps 760 mmHg 57%
    08:00 +22°C° 0 mm 3 mps 761 mmHg 54%
    09:00 +25°C° 0 mm 3 mps 762 mmHg 50%
    10:00 +26°C° 0 mm 3 mps 761 mmHg 44%
    11:00 +28°C° 0 mm 3 mps 761 mmHg 39%
    12:00 +30°C° 0 mm 3 mps 761 mmHg 33%
    13:00 +30°C° 0 mm 3 mps 760 mmHg 32%
    14:00 +30°C° 0 mm 3 mps 759 mmHg 32%
    15:00 +31°C° 0 mm 3 mps 759 mmHg 31%
    16:00 +29°C° 0 mm 3 mps 759 mmHg 35%
    17:00 +27°C° 0 mm 3 mps 759 mmHg 38%
    18:00 +25°C° 0 mm 2 mps 759 mmHg 42%
    19:00 +24°C° 0 mm 2 mps 760 mmHg 42%
    20:00 +22°C° 0 mm 3 mps 760 mmHg 43%
    21:00 +22°C° 0 mm 3 mps 761 mmHg 44%
    22:00 +21°C° 0 mm 3 mps 761 mmHg 45%
    23:00 +20°C° 0 mm 3 mps 761 mmHg 46%

    13 December, Thursday

    Time Temperature Precipitation Wind Pressure Humidity
    00:00 +20°C° 0 mm 3 mps 761 mmHg 47%
    01:00 +20°C° 0 mm 3 mps 761 mmHg 49%
    02:00 +19°C° 0 mm 3 mps 761 mmHg 51%
    03:00 +19°C° 0 mm 3 mps 760 mmHg 53%
    04:00 +18°C° 0 mm 3 mps 760 mmHg 55%
    05:00 +18°C° 0 mm 3 mps 761 mmHg 57%
    06:00 +18°C° 0 mm 2 mps 761 mmHg 59%
    07:00 +19°C° 0 mm 2 mps 761 mmHg 56%
    08:00 +21°C° 0 mm 2 mps 762 mmHg 52%
    09:00 +24°C° 0 mm 2 mps 762 mmHg 49%
    10:00 +25°C° 0 mm 2 mps 762 mmHg 43%
    11:00 +27°C° 0 mm 3 mps 762 mmHg 38%
    12:00 +29°C° 0 mm 3 mps 761 mmHg 32%
    13:00 +29°C° 0 mm 3 mps 760 mmHg 31%
    14:00 +29°C° 0 mm 3 mps 760 mmHg 30%
    15:00 +30°C° 0 mm 3 mps 759 mmHg 29%
    16:00 +28°C° 0 mm 3 mps 759 mmHg 32%
    17:00 +26°C° 0 mm 3 mps 759 mmHg 36%
    18:00 +24°C° 0 mm 2 mps 760 mmHg 40%
    19:00 +23°C° 0 mm 2 mps 760 mmHg 41%
    20:00 +23°C° 0 mm 2 mps 761 mmHg 42%
    21:00 +21°C° 0 mm 2 mps 761 mmHg 43%
    22:00 +21°C° 0 mm 2 mps 761 mmHg 45%
    23:00 +20°C° 0 mm 2 mps 761 mmHg 46%

    14 December, Friday

    Time Temperature Precipitation Wind Pressure Humidity
    00:00 +20°C° 0 mm 2 mps 761 mmHg 48%
    01:00 +19°C° 0 mm 3 mps 761 mmHg 49%
    02:00 +19°C° 0 mm 3 mps 761 mmHg 51%
    03:00 +19°C° 0 mm 3 mps 760 mmHg 53%
    04:00 +19°C° 0 mm 3 mps 761 mmHg 54%
    05:00 +19°C° 0 mm 3 mps 761 mmHg 55%
    06:00 +19°C° 0 mm 3 mps 761 mmHg 56%
    07:00 +20°C° 0 mm 3 mps 762 mmHg 55%
    08:00 +21°C° 0 mm 3 mps 762 mmHg 55%
    09:00 +22°C° 0 mm 3 mps 763 mmHg 54%
    10:00 +24°C° 0 mm 3 mps 762 mmHg 50%
    11:00 +25°C° 0 mm 2 mps 762 mmHg 46%
    12:00 +26°C° 0 mm 2 mps 762 mmHg 41%
    13:00 +27°C° 0 mm 2 mps 761 mmHg 40%
    14:00 +27°C° 0 mm 2 mps 761 mmHg 38%
    15:00 +28°C° 0 mm 1 mps 760 mmHg 37%
    16:00 +27°C° 0 mm 1 mps 761 mmHg 38%
    17:00 +25°C° 0 mm 1 mps 761 mmHg 40%
    18:00 +24°C° 0 mm 1 mps 761 mmHg 42%
    19:00 +24°C° 0 mm 1 mps 762 mmHg 42%
    20:00 +24°C° 0 mm 1 mps 762 mmHg 42%
    21:00 +24°C° 0 mm 1 mps 762 mmHg 42%
    22:00 +23°C° 0 mm 2 mps 762 mmHg 41%
    23:00 +23°C° 0 mm 2 mps 762 mmHg 40%

    15 December, Saturday

    Time Temperature Precipitation Wind Pressure Humidity
    00:00 +22°C° 0 mm 3 mps 762 mmHg 40%
    01:00 +22°C° 0 mm 3 mps 762 mmHg 40%
    02:00 +21°C° 0 mm 3 mps 761 mmHg 41%
    03:00 +21°C° 0 mm 4 mps 761 mmHg 41%
    04:00 +21°C° 0 mm 3 mps 761 mmHg 42%
    05:00 +21°C° 0 mm 3 mps 761 mmHg 44%
    06:00 +20°C° 0 mm 3 mps 762 mmHg 45%
    07:00 +21°C° 0 mm 3 mps 762 mmHg 48%
    08:00 +21°C° 0 mm 3 mps 763 mmHg 50%
    09:00 +21°C° 0 mm 3 mps 763 mmHg 52%
    10:00 +21°C° 0 mm 3 mps 763 mmHg 52%
    11:00 +21°C° 0 mm 3 mps 763 mmHg 52%
    12:00 +22°C° 0 mm 3 mps 762 mmHg 52%
    13:00 +21°C° 0 mm 3 mps 762 mmHg 52%
    14:00 +21°C° 0 mm 3 mps 762 mmHg 53%
    15:00 +21°C° 0 mm 3 mps 761 mmHg 54%
    16:00 +20°C° 0 mm 3 mps 762 mmHg 54%
    17:00 +20°C° 0 mm 3 mps 762 mmHg 53%
    18:00 +20°C° 0 mm 2 mps 762 mmHg 53%
    19:00 +21°C° 0 mm 2 mps 763 mmHg 52%
    20:00 +21°C° 0 mm 2 mps 763 mmHg 52%
    21:00 +21°C° 0 mm 2 mps 763 mmHg 52%
    22:00 +21°C° 0 mm 3 mps 763 mmHg 51%
    23:00 +21°C° 0 mm 3 mps 763 mmHg 51%
    Show more